Content
SEND FEEDBACK

Daily
Averages
Monthly
Summary
United States of America

GLENVIEW, ILLINOIS


Home > North America > United States > Illinois
Elevation: 653 feet     Latitude: 42 05N     Longitude: 087 50W

WEATHER
 
SELECT A DAY
Number of Records: 192,985;   Date Range: 7/8/95 - 4/17/14
 
SHARE

PRINT THIS DATA

[ ← Previous Day ]
WEATHER ALMANAC - MAY 25, 2013
[ Next Day → ]
[ °C ]   °F
Weather ElementAverageHighLow
Temperature50 °F57 °F (2:52 pm)43 °F (2:52 am)
Dewpoint37.7 °F41 °F (10:52 am)34 °F (1:52 am)
Humidity63.4 %80 % (2:52 am)51 % (2:52 pm)
Barometer30.38 in30.43 in (8:52 am)30.33 in (6:52 pm)
Wind Speed2.9 mph8.1 mph (2:52 pm)
Weather ElementAverage
Visibility10 mi
Wind DirectionNNE (38.7 °)

Weather ElementTotal
Precipitation---
Heating Degree Days15 (Base 65)
Averaged from 23 records on May 25, 2013
WEATHER CONDITIONS BREAKOUT
WIND DIRECTION BREAKOUT
WEATHER BY HOUR - MAY 25, 2013
[ °C ]   °F
Local TimeTemperatureDewpointHumidityBarometerVisibilityWind DirectionWind SpeedGust SpeedPrecipitationEventsConditions
1:52 AM44.1 °F34.0 °F68 %30.36 in10.0 miCalmClear
2:52 AM43.0 °F37.0 °F80 %30.35 in10.0 miCalmClear
3:52 AM44.1 °F37.9 °F79 %30.38 in10.0 miNNW (340°)3.5 mphClear
4:52 AM44.1 °F37.0 °F76 %30.39 in10.0 miCalmPartly Cloudy
5:52 AM46.0 °F37.0 °F71 %30.41 in10.0 miCalmOvercast
6:52 AM46.9 °F37.9 °F71 %30.41 in10.0 miCalmOvercast
7:52 AM48.9 °F39.0 °F69 %30.41 in10.0 miEast (80°)3.5 mphOvercast
8:52 AM52.0 °F39.0 °F61 %30.43 in10.0 miCalmOvercast
9:52 AM52.0 °F39.0 °F61 %30.43 in10.0 miCalmOvercast
10:52 AM53.1 °F41.0 °F64 %30.42 in10.0 miENE (60°)6.9 mphOvercast
11:52 AM50.0 °F39.9 °F68 %30.43 in10.0 miNNE (30°)4.6 mphOvercast
12:52 PM51.1 °F39.9 °F66 %30.41 in10.0 miNE (50°)5.8 mphOvercast
1:52 PM55.0 °F39.9 °F57 %30.37 in10.0 miCalmOvercast
2:52 PM57.0 °F39.0 °F51 %30.36 in10.0 miENE (60°)8.1 mphOvercast
3:52 PM55.0 °F37.9 °F53 %30.35 in10.0 miNE (50°)6.9 mphOvercast
4:52 PM55.0 °F39.0 °F55 %30.35 in10.0 miNE (40°)6.9 mphOvercast
5:52 PM54.0 °F36.0 °F51 %30.35 in10.0 miNE (40°)3.5 mphOvercast
6:52 PM53.1 °F37.0 °F55 %30.33 in10.0 miNE (50°)5.8 mphOvercast
7:52 PM51.1 °F37.0 °F59 %30.34 in10.0 miNNE (30°)5.8 mphOvercast
8:52 PM50.0 °F35.1 °F57 %30.33 in10.0 miENE (60°)5.8 mphOvercast
9:52 PM48.9 °F35.1 °F59 %30.35 in10.0 miCalmOvercast
10:52 PM48.9 °F34.0 °F56 %30.36 in10.0 miCalmOvercast
11:52 PM46.9 °F37.9 °F71 %30.35 in10.0 miCalmClear
Hourly data recorded from KPWK, located 8.07 miles away from Glenview, Illinois







STORIES FROM OUR PARTNERS